Tracking 35331 objects as of 17-Sep-2026
HD Live streaming from Space Station
objects crossing your sky now

COSMOS 1408 DEB


COSMOS 1408 DEB is no longer on orbit


NORAD ID: 49712
Int'l Code: 1982-092HH
Launch date: September 16, 1982
Source: Commonwealth of Independent States (former USSR) (CIS)
Launch site: PLESETSK MISSILE AND SPACE COMPLEX (PKMTR)
Decay date: 2022-05-16

Note: This is SATELLITE DEBRIS
Your satellite tracking list
Your tracking list is empty




NASA's NSSDC Master Catalog

Two Line Element Set (TLE):
1 49712U 82092HH  22125.93448786  .00856337  00000-0  60831-2 0  9997
2 49712  82.6763 312.3729 0002030 220.2189 139.8925 15.71424540 25077
Source of the keplerian elements: AFSPC